星链-30382 (STARLINK-30382 )

导读

STARLINK-30382是美国太空探索技术公司(SpaceX)星链星座的组网卫星,星链计划旨在构建全球卫星互联网,为偏远地区等提供高速网络服务。该卫星于2023年9月4日发射升空,加入低轨星座网络,进一步扩充星链系统的覆盖范围与服务能力。

基本信息
目录编号:
57786
目录名称:
STARLINK-30382
国际标识:
2023-134R
轨道中心:
EARTH
卫星名称:
星链-30382
卫星全名:
星链-30382 (STARLINK-30382 )
卫星状态:
在轨 (已飞行1103 天)
发射日期:
2023-09-04 UTC
国别 :
美国 (US)
星等 :
--
该卫星已列入 空间交会检测服务 Space Conjunction Data Service (SCDS) ,当前飞行风险评估等级: 高风险
轨道信息
数据来源 国际轨道数据 AOE轨道数据
星历时间 2026-09-11T14:39:54+0800
8小时前
查看轨道信息
2026-09-10T23:00:00+0800
23小时前
查看轨道信息
半长轴 6861.203km 6861.183km
偏心率 0.0001387 0.000151
轨道倾角 43.001° 43.000°
近地点辐角 266.464° 252.418°
升交点赤经 226.079° 229.768°
平近点角 93.605° 114.047°
近地点 482.114km 482.009km
远地点 484.018km 484.083km
周期 94.267分钟 94.267分钟
每日圈数 15.275746 15.275813
详细信息
固有亮度:
5
最大亮度:
0.3
卫星平台:
Starlink v2.0 mini
覆盖范围:
全球
运营商:
太空探索技术公司
运营商所在国:
美国
制造商(研发单位):
太空探索技术公司
制造商所在国:
美国
使用方式:
暂无
卫星简介
星链(Starlink)计划是由太空探索技术公司(SpaceX)提出的一个巨型低轨卫星互联网星座项目,计划在2019年至2024年间在太空搭建由约1.2万颗卫星组成的“星链”网络,其中1584颗将部署在地球上空550千米处的近地轨道,并从2020年开始工作。该卫星仍在工作。
2D轨道图
3D轨道图
轨道高度分析图
轨道倾角分析图
轨道综合分析图
查看轨道综合分析图
交会数据列表
事件ID 空间交会对象 最接近时刻(TCA) 交会距离 交会风险概率(CRP) 交会风险指数(CRI) 操作
CDM_260913-015505-778606-799621
2026-09-13T
01:55:12+0000
0.284 km
中距离
4.638499E-4 高风险 0.88
CDM_260912-110005-778606-799622
2026-09-12T
11:00:45+0000
0.831 km
远距离
3.827619E-5 中风险 0.67
CDM_260911-185205-654605-778624
2026-09-11T
18:52:27+0000
0.969 km
远距离
9.298414E-6 低风险 0.54
CDM_260912-092605-778606-799621
2026-09-12T
09:26:35+0000
1.819 km
极远距离
2.858586E-6 低风险 0.44
CDM_260913-032905-778606-799621
2026-09-13T
03:29:21+0000
2.581 km
极远距离
1.314274E-6 低风险 0.37
CDM_260911-193905-654605-778622
2026-09-11T
19:39:31+0000
1.927 km
极远距离
1.118043E-6 低风险 0.36
CDM_260913-002105-778606-799621
2026-09-13T
00:21:03+0000
2.903 km
极远距离
1.110582E-6 低风险 0.36
CDM_260912-195005-778606-307321
2026-09-12T
19:50:42+0000
2.347 km
极远距离
1.013717E-6 低风险 0.35
CDM_260911-211305-654605-778623
2026-09-11T
21:13:40+0000
2.097 km
极远距离
9.252391E-7 极低风险 0.34
CDM_260912-142105-778606-307322
2026-09-12T
14:21:10+0000
2.806 km
极远距离
7.703053E-7 极低风险 0.33
与全量物体交会距离演化趋势
与全量物体交会风险概率演化趋势